Regional Weather Roundup
Issued by NWS

Home | Current Version | Previous Version | Text Only | Print | Product List | Glossary On
Versions: 1 2 3 4 5 6 7 8 9 10 11 12 13 14 15 16 17 18 19 20 21 22 23 24 25 26 27 28 29 30 31 32 33 34 35 36 37 38 39 40 41 42 43 44 45 46 47 48 49 50
000
ASUS43 KLOT 310008
RWRIL

ILLINOIS REGIONAL WEATHER ROUNDUP
NATIONAL WEATHER SERVICE CHICAGO/ROMEOVILLE IL
700 PM CDT MON MAY 30 2016

NOTE: "FAIR" INDICATES FEW OR NO CLOUDS BELOW 12,000 FEET WITH NO
SIGNIFICANT WEATHER AND/OR OBSTRUCTIONS TO VISIBILITY.

* THESE STATIONS ARE NOT UNDER NWS QUALITY CONTROL. THEY ALSO MAY NOT
  REPORT WEATHER SUCH AS PRECIPITATION OR FOG.

ILZ001-002-007-009-015-016-024-310100-
NORTHWEST ILLINOIS

CITY           SKY/WX    TMP DP  RH WIND       PRES   REMARKS
MOLINE         CLOUDY    85  59  41 SW6       29.94R HX  84
6HR MIN TEMP:  83; 6HR MAX TEMP:  88;

STERLING*      SUNNY     84  58  40 W7        29.95S HX  83
SAVANNA*       SUNNY     82  56  40 NE6       29.94S HX  82
$$

ILZ003-004-008-010-011-017-018-310100-
NORTH CENTRAL ILLINOIS

CITY           SKY/WX    TMP DP  RH WIND       PRES   REMARKS
ROCKFORD       MOSUNNY   83  51  33 N5        29.98S HX  81
6HR MIN TEMP:  82; 6HR MAX TEMP:  87;

FREEPORT*      SUNNY     79  52  38 NW5       29.98S
ROCHELLE*      SUNNY     82  57  41 N6        29.96S HX  82
DE KALB*       SUNNY     80  53  39 N7        29.98R HX  80
$$

ILZ005-006-012>014-019>023-310100-
NORTHEAST ILLINOIS

CITY           SKY/WX    TMP DP  RH WIND       PRES   REMARKS
CHICAGO-OHARE  MOSUNNY   81  57  43 NE10      29.95S HX  81
6HR MIN TEMP:  81; 6HR MAX TEMP:  87;

CHICAGO-MIDWAY PTSUNNY   80  56  43 E9        29.95S HX  80
6HR MIN TEMP:  80; 6HR MAX TEMP:  87;

AURORA         CLOUDY    86  53  32 CALM      29.95F HX  84
6HR MIN TEMP:  84; 6HR MAX TEMP:  88;

LANSING*       CLOUDY    79  56  45 NE7       29.96R HX  80
JOLIET*        CLOUDY    85  58  40 N5        29.94S HX  84
WAUKEGAN       SUNNY     71  57  61 E7        29.97S
6HR MIN TEMP:  71; 6HR MAX TEMP:  76;

DUPAGE AIRPORT CLOUDY    82  52  35 N9        29.95S HX  81
6HR MIN TEMP:  82; 6HR MAX TEMP:  86;

KANKAKEE*      CLOUDY    80  55  43 SW5       29.96S HX  80
WHEELING       SUNNY     78  56  46 NE8       29.97R
6HR MIN TEMP:  78; 6HR MAX TEMP:  85;

MORRIS*        PTSUNNY   85  57  37 NW5       29.93S HX  84
ROMEOVILLE*    CLOUDY    84  48  28 N8        29.96R HX  82
NORTHERLY ISL    N/A     70  57  63 N1          N/A
NORTHERLY ISL    N/A     70  57  63 N1          N/A
$$

LMZ740>746-310100-
SOUTHERN LAKE MICHIGAN

STATION/POSITION SKY/WX   TEMP    WIND        PRES    VSBY  WAVE
                          AIR SEA DIR/SP/G                  HT/PER
                          (F)     (DEG/KT/KT) (MB)    (MI)  (FT/S)
SOUTHERN BUOY              61 59   80/  4/  4 1015.2R         0
WILMETTE HARBOR            63 61   60/  2/  4   N/A           1
HARRISON CRIB              69     100/  6/  6   N/A
BURNHAM HARBOR             70     360/  3/  3   N/A
CALUMET HARBOR             69                   N/A
BURNS HARBOR               70      80/ 10/ 11 1014.9F
MICHIGAN CITY              69      30/ 11/ 11   N/A
MICHIGAN CITY 6N           67 63   60/  6/  6   N/A           0
ST. JOSEPH                 69 66   10/  8/  8   N/A           1
$$

ILZ025>027-034>036-040-047-049-050-058-095>099-310100-
WEST-CENTRAL ILLINOIS

CITY           SKY/WX    TMP DP  RH WIND       PRES   REMARKS
QUINCY         CLOUDY    80  65  59 S5        29.97S HX  82
GALESBURG*     CLOUDY    81  62  51 S9        29.96S HX  82
MACOMB*        MOSUNNY   83  63  50 S6        29.99R HX  84
JACKSONVILLE*  PTSUNNY   81  61  49 S6        29.98R HX  82
PITTSFIELD*    CLOUDY    81  67  62 S3        30.00R HX  83
$$

ILZ028>032-037-038-041>044-048-051>054-059>061-310100-
CENTRAL ILLINOIS

CITY           SKY/WX    TMP DP  RH WIND       PRES   REMARKS
PONTIAC        PTSUNNY   82  60  46 S7        29.97S HX  82
BLOOMINGTON    CLOUDY    83  64  52 E6        29.99S HX  84
DECATUR        CLOUDY    79  63  57 SW7       29.98S HX  80
PEORIA         PTSUNNY   83  59  44 W6        29.97R HX  83
6HR MIN TEMP:  83; 6HR MAX TEMP:  90;

LACON*         CLOUDY    83  60  45 S5        29.95R HX  83
LINCOLN*       CLOUDY    84  61  45 W3        29.97R HAZE    HX  84
SPRINGFIELD    CLOUDY    80  59  48 S7        29.98R HX  81
6HR MIN TEMP:  80; 6HR MAX TEMP:  88;

TAYLORVILLE    CLOUDY    75  61  60 S7        29.99S
6HR MIN TEMP:  75; 6HR MAX TEMP:  85;

$$

ILZ033-039-045-046-055>057-062-063-310100-
EAST-CENTRAL ILLINOIS

CITY           SKY/WX    TMP DP  RH WIND       PRES   REMARKS
CHAMPAIGN      CLOUDY    79  57  46 SE6       29.98S THUNDER HX  80
RANTOUL*       CLOUDY    82  60  46 NW9       29.97S HX  83
MATTOON        CLOUDY    79  64  60 SW6       29.98S HX  81
PARIS*         MOSUNNY   83  60  46 S3        29.99R HX  83
$$

ILZ079-100>102-310100-
SOUTHWEST ILLINOIS

CITY           SKY/WX    TMP DP  RH WIND       PRES   REMARKS
ALTON          CLOUDY    75  61  60 N6        30.01R
BELLEVILLE     CLOUDY    81  70  68 SE2       29.97S HX  84
CAHOKIA*       CLOUDY    77  59  53 CALM      29.98F
SPARTA*        CLOUDY    82  65  56 CALM      30.00S HX  83
$$

ILZ064>066-069>071-074>076-080>082-084>086-088>090-092>094-310100-
SOUTH-CENTRAL ILLINOIS

CITY           SKY/WX    TMP DP  RH WIND       PRES   REMARKS
CARBONDALE     PTSUNNY   79  63  57 SE5       29.98S HX  80
6HR MIN TEMP:  79; 6HR MAX TEMP:  87;

CAIRO*         MOSUNNY   83  66  56 CALM      29.97S HX  84
EFFINGHAM*     CLOUDY    81  69  67 CALM      30.00S HX  84
MARION         CLOUDY    79  68  69 CALM      29.99F HX  81
MT. VERNON     MOSUNNY   82  63  51 CALM      29.99S HX  83
CENTRALIA*     MOSUNNY   82  68  64 CALM      29.98S HX  84
SALEM*         MOSUNNY   83  66  56 CALM      29.99R HX  84
METROPOLIS*    MOSUNNY   83  67  59 CALM      29.99R HX  85
$$

ILZ067-068-072-073-078-083-087-091-310100-
SOUTHEAST ILLINOIS

CITY           SKY/WX    TMP DP  RH WIND       PRES   REMARKS
LAWRENCEVILLE  MOSUNNY   85  59  41 NE3       29.98S HX  84
FLORA*         MOSUNNY   84  65  53 SW3       29.99S HX  85
FAIRFIELD*     PTSUNNY   83  61  45 CALM      29.97S HX  84
HARRISBURG*    MOSUNNY   83  65  55 CALM      29.98S HX  84
ROBINSON*      MOSUNNY   79  64  60 SE3       29.98S HX  80
CARMI*         CLOUDY    84  62  48 CALM      29.97S HX  85
$$

ABBREVIATIONS USED IN REMARKS
   TC - TEMPERATURE IN CELSIUS
  WCI - WIND CHILL INDEX
   HX - HEAT INDEX
  VSB - VISIBILITY
$$





USA.gov is the U.S. government's official web portal to all federal, state and local government web resources and services.